Location: Holyhead Bay
(53.3667°N, 4.6667°W)
Time: 07:07:14
(UTC+00:00)

Cosmos 2360 Rocket - Pass Details

Date: 24 November 2020
Orbit: 834 x 845 km, 71.0° (Epoch: 23 January)

Event Time Altitude Azimuth Distance (km) Brightness Sun altitude
Rises 19:11:37 0° 278° (W) 3,385 6.6 -26.3°
Reaches altitude 10° 19:15:00 10° 298° (WNW) 2,453 5.4 -26.8°
Maximum altitude 19:18:34 17° 338° (NNW) 2,009 4.4 -27.3°
Enters shadow 19:20:56 13° 7° (N) 2,215 4.3 -27.7°
